Temperature
10 10 9 9 9 9 9 9 9 9 9 9 9 9 9 9 9 9 10 10 10 10 10 10 11 11 11 11 11 10 10 10 10 10 9 9 9 9 9 9 9 9 9
9 9 9 9 9 9 9 9 9 9 9 9 9 8 8 9 9 9 9 10 10 10 10 10 10 10 10 10 10 10 10 10 10 10 9 8 8 8 8 9 9 9 9
9 9 9 9 9 9 8 8 8 8 8 8 8 8 8 8 8 8 9 9 9 9 9 10 10 10 10 10 10 10 10 10 9 10 10 9 9 8 8 8 8 8 8
9 9 9 8 8 8 8 8 8 8 8 8 8 8 8 8 8 8 8 8 9 9 9 9 9 9 9 9 9 10 9 10 9 9 9 9 9 9 8 8 8 8 8
9 8 8 8 8 8 8 8 8 8 8 8 7 7 7 7 7 8 8 8 8 8 8 9 9 9 9 9 9 9 9 9 9 9 9 9 9 9 9 8 8 8 8
8 8 8 8 8 8 8 8 7 7 7 7 7 7 7 7 7 7 7 7 8 8 8 8 8 8 9 9 9 9 8 8 8 8 8 9 9 9 9 8 8 7 7
8 8 8 8 8 7 7 7 7 7 7 7 7 7 7 7 7 7 7 7 7 7 7 7 8 8 8 8 8 8 8 8 8 8 8 8 8 8 8 8 8 7 7
8 7 7 7 7 7 7 7 7 7 7 7 7 6 6 6 6 6 7 7 7 7 7 7 7 7 7 7 8 7 7 7 8 8 7 8 8 8 8 7 7 7 6
7 7 7 7 7 7 7 7 7 6 6 6 6 6 6 6 6 6 6 6 7 7 7 7 7 7 7 7 7 7 7 7 7 7 7 7 7 7 7 7 7 7 6
7 7 7 7 7 7 7 7 6 6 6 6 6 6 6 6 6 6 6 6 6 6 7 7 7 7 7 7 7 7 7 7 7 7 7 7 7 7 7 7 6 6 6
7 7 7 7 7 7 6 6 6 6 6 6 6 5 6 6 6 6 6 6 6 6 6 6 6 6 6 6 6 6 6 6 6 6 6 6 6 6 6 6 6 6 6
7 7 7 6 6 6 6 6 6 6 5 5 5 5 5 5 5 5 6 5 5 6 6 6 6 6 6 6 6 6 6 6 6 6 6 6 6 6 6 6 5 5 5
7 7 6 6 6 6 6 6 5 5 5 5 5 5 5 5 5 5 5 5 5 5 5 5 5 5 5 5 5 5 6 5 5 6 5 5 5 5 5 5 5 5 5
6 6 6 6 6 6 5 5 5 5 5 5 5 5 5 5 5 5 5 5 5 5 5 5 5 5 5 5 5 5 5 5 5 5 5 5 5 5 5 4 4 4 4
6 6 6 6 5 5 5 5 5 5 5 5 5 5 5 5 5 5 5 5 5 4 4 4 4 4 4 4 5 5 5 5 5 5 4 4 4 4 4 4 4 4 3
6 6 6 5 5 5 5 5 5 5 5 5 5 5 4 4 5 5 5 5 4 4 4 4 4 4 4 4 4 4 4 4 4 4 4 4 4 4 3 3 3 3 3
6 5 5 5 5 5 5 5 4 4 4 4 4 4 4 4 4 4 4 4 4 4 4 4 4 4 4 4 4 4 4 4 4 4 4 3 3 3 3 3 3 3 2
5 5 5 5 5 5 4 4 4 4 4 4 4 4 4 3 3 3 4 4 4 4 4 4 3 3 3 3 3 3 3 3 3 3 3 3 3 3 3 2 2 2 2
5 5 5 4 4 4 4 4 4 4 3 3 3 3 3 3 3 3 3 3 3 3 3 3 3 3 3 3 3 3 3 3 3 3 2 2 2 2 2 2 2 2 2
5 5 4 4 4 3 3 3 3 3 3 3 3 3 3 2 2 2 2 2 2 2 2 2 2 2 2 2 2 2 2 2 2 2 2 2 2 2 2 1 1 1 1
4 4 4 3 3 3 3 3 3 3 3 2 2 2 2 2 2 2 2 2 2 2 2 2 2 2 2 2 1 1 1 1 1 1 1 1 1 1 1 1 1 0 0
3 3 3 3 2 2 2 2 2 2 2 2 2 2 2 2 1 1 1 1 1 1 1 1 1 1 1 1 1 1 1 0 1 1 1 1 1 0 0 -0 -0 -0 -0
2 2 2 2 2 2 2 2 2 1 1 1 1 1 1 1 1 1 1 1 1 1 1 0 0 0 0 0 0 0 0 0 -0 0 0 -0 -0 -0 -0 -1 -1 -1 -1
2 2 2 2 1 1 1 1 1 1 1 1 1 1 1 1 1 0 0 0 -0 -0 -0 -0 -0 -0 -0 -0 -0 -0 -0 -1 -1 -1 -1 -1 -1 -1 -1 -1 -1 -2 -2
1 1 1 1 1 1 1 0 0 0 1 0 0 0 0 -0 -0 -0 -1 -1 -1 -1 -1 -1 -1 -1 -1 -1 -1 -1 -1 -1 -1 -1 -1 -1 -1 -1 -2 -2 -2 -2 -2
0 0 0 0 -0 -0 -0 -0 -0 -0 -0 -0 -0 -0 -1 -1 -1 -1 -1 -1 -1 -1 -1 -2 -2 -2 -2 -2 -2 -2 -2 -2 -2 -2 -2 -2 -2 -2 -2 -3 -3 -3 -3
Wind_Speed
5 2 1 0 1 1 2 2 3 3 4 3 3 2 2 2 1 2 2 4 5 5 5 4 5 5 4 5 6 5 5 4 4 5 4 4 4 3 2 3 4 5 6
3 2 1 0 1 1 2 2 3 3 4 3 2 2 2 2 1 1 2 3 5 5 5 4 4 4 4 5 6 5 3 2 3 4 4 2 1 1 1 1 3 3 4
3 2 2 2 2 2 2 2 3 3 4 5 4 4 3 2 1 1 2 1 3 4 4 5 5 4 4 5 5 6 5 4 1 2 4 4 4 1 1 0 1 2 2
2 2 2 2 3 3 2 2 3 3 4 5 5 6 4 3 2 1 1 2 2 3 4 4 4 4 4 4 5 4 3 5 4 1 1 2 4 4 2 1 0 1 2
2 2 2 3 2 2 2 2 3 3 4 5 6 5 4 3 2 2 3 2 1 2 3 4 4 4 4 4 4 3 3 3 3 3 2 2 2 2 3 2 1 1 1
1 1 1 1 1 1 2 3 3 3 3 4 5 6 6 5 4 3 3 2 1 1 2 3 3 4 4 4 4 4 4 3 3 2 2 3 3 3 3 3 3 2 2
2 1 1 2 2 2 3 3 3 3 3 4 4 5 6 6 6 5 4 3 2 2 3 2 3 3 3 4 4 4 4 4 4 3 2 2 3 3 3 4 3 2 1
2 2 2 2 3 3 3 4 3 3 3 3 3 3 4 4 3 3 3 4 3 3 3 3 3 3 4 4 3 3 3 3 3 3 2 1 2 3 3 4 4 3 1
3 3 2 2 3 3 4 4 4 3 3 3 3 2 3 3 3 3 3 2 2 2 4 4 3 3 3 3 4 3 3 3 3 3 3 2 1 2 3 3 4 5 3
2 2 2 2 2 3 3 4 4 4 3 3 3 2 3 3 4 4 4 3 4 4 4 4 3 3 3 3 3 4 4 4 3 3 3 2 2 2 2 3 3 3 4
3 3 3 3 2 2 2 3 3 3 3 3 3 2 2 2 3 3 4 4 4 4 4 4 4 4 4 4 4 4 5 5 4 3 4 3 3 3 3 2 3 3 3
3 3 3 3 2 2 2 2 3 3 3 3 2 2 2 2 3 4 4 4 4 4 4 4 4 4 4 4 5 5 5 6 5 5 4 4 3 4 3 3 3 3 3
2 2 2 2 2 2 2 2 3 3 3 3 3 3 3 3 4 4 4 4 4 3 4 4 5 5 4 5 5 5 5 6 6 6 5 5 5 4 3 4 4 3 2
2 2 3 2 2 2 2 3 3 3 2 2 3 3 3 4 4 4 4 5 4 4 4 4 4 4 5 5 5 5 5 5 5 5 5 5 6 6 6 5 5 4 3
2 3 3 3 2 2 2 2 2 2 2 2 2 2 2 2 2 3 4 4 5 5 4 4 4 4 4 5 5 5 5 5 5 4 5 5 7 8 7 5 5 5 4
3 3 3 3 3 3 3 2 2 2 2 2 2 1 1 1 1 2 3 3 3 4 4 4 5 5 5 7 8 6 5 6 6 5 5 5 6 7 9 9 9 8 7
4 3 3 4 4 3 3 3 2 2 2 2 1 1 1 1 2 1 1 2 3 3 4 4 5 5 6 8 9 9 6 6 6 6 5 4 5 6 4 6 8 8 10
4 3 3 3 2 2 2 2 1 2 2 1 1 1 1 1 2 1 1 1 1 2 2 3 4 4 5 7 8 8 5 5 5 6 6 6 5 5 6 5 5 5 6
3 3 3 3 2 2 2 2 1 1 1 1 1 1 1 1 1 2 2 1 1 2 2 2 3 3 4 5 7 6 3 4 5 5 5 6 6 8 8 6 5 5 5
1 1 1 2 2 1 2 2 2 1 1 1 1 1 1 1 2 2 2 1 1 2 2 2 2 3 3 5 6 6 3 4 3 3 4 6 7 8 8 6 6 6 6
2 2 3 2 1 1 2 2 1 0 1 1 1 1 1 1 1 1 1 1 1 1 1 1 2 2 3 4 5 6 3 4 3 3 3 4 8 8 9 7 6 8 5
3 3 3 2 2 2 3 2 1 1 1 1 1 1 1 1 1 1 1 1 1 1 1 1 2 2 2 3 4 5 6 5 4 4 4 4 7 8 8 7 7 7 4
3 3 3 3 2 2 2 2 1 1 1 2 1 1 2 2 1 1 1 1 1 1 1 1 2 3 2 3 5 6 6 6 4 4 5 6 6 6 5 6 7 5 3
2 3 4 3 2 2 2 1 0 1 1 1 1 1 2 2 2 2 1 1 1 1 2 2 2 3 2 2 2 3 3 4 4 3 4 5 5 3 3 3 4 3 3
2 3 3 2 1 2 2 2 1 1 2 1 1 2 2 2 2 2 2 2 2 2 3 3 2 3 4 5 5 4 3 3 4 2 1 1 1 2 2 2 2 2 2
3 3 3 2 2 2 2 2 2 1 2 2 2 2 2 2 2 2 3 4 3 5 5 5 4 4 6 7 7 6 7 6 5 3 2 3 3 4 4 3 3 3 4
Wind_Direction
275 267 259 172 106 96 129 138 140 138 129 126 124 127 135 124 107 99 110 124 128 134 134 138 141 137 143 150 142 129 131 130 128 107 86 46 51 75 103 119 123 125 124
291 280 266 183 192 188 160 151 152 143 140 144 130 127 125 115 89 49 72 112 126 133 140 139 143 139 132 135 140 135 131 135 137 130 126 111 39 11 65 128 144 138 130
245 239 218 213 194 184 179 172 158 139 137 131 116 104 84 72 68 61 58 76 117 131 137 145 143 143 144 153 152 147 140 153 157 143 147 154 188 188 323 219 159 159 146
235 227 212 208 203 197 180 165 153 144 140 137 138 139 142 148 165 159 113 72 103 121 127 138 140 142 140 153 163 151 144 150 162 168 147 141 145 151 164 285 259 187 178
216 214 209 205 198 171 162 161 149 154 147 147 152 149 146 141 125 115 109 98 101 126 134 135 139 143 147 152 154 140 144 146 160 171 161 125 99 116 148 183 217 255 228
215 216 218 166 140 137 143 137 143 150 151 152 153 154 155 149 144 144 137 138 142 124 136 143 147 146 148 157 160 151 156 155 147 153 167 161 160 168 156 169 185 209 242
195 190 197 174 160 158 154 143 148 154 155 156 163 169 168 165 170 170 166 165 173 176 184 168 165 156 158 161 154 149 160 162 160 162 169 179 180 161 151 148 162 182 246
204 199 199 181 181 178 167 162 164 166 162 165 172 170 170 170 176 176 172 183 191 186 179 171 175 173 163 164 153 148 161 162 162 165 155 159 184 166 158 155 151 151 220
212 198 192 184 188 185 182 173 171 168 172 179 177 170 173 171 179 178 172 186 196 179 173 169 172 174 169 167 160 165 169 161 166 171 166 169 167 156 158 154 157 158 182
226 194 184 192 200 190 184 169 174 177 180 181 183 184 182 182 183 177 179 192 198 181 170 169 171 174 178 174 171 173 175 169 180 178 170 176 176 154 152 158 157 156 167
229 210 199 195 185 160 164 166 172 173 178 183 183 184 191 186 184 192 194 195 195 183 173 174 178 184 189 188 184 188 181 182 189 185 180 192 178 168 167 157 154 153 154
220 209 197 178 170 171 172 178 185 185 191 187 179 191 197 195 197 202 198 191 191 186 178 177 182 191 195 193 190 193 192 192 196 197 188 197 185 184 180 172 173 176 171
208 195 187 183 186 190 192 193 196 198 197 187 186 198 205 207 210 207 196 187 189 186 182 183 191 197 197 195 198 197 198 201 201 197 195 200 189 197 194 188 188 186 181
199 191 198 202 203 205 203 197 204 201 191 180 188 203 214 217 218 209 195 190 188 189 194 196 202 202 203 203 202 197 199 204 205 203 203 202 201 203 195 195 195 185 182
210 203 205 202 200 212 221 205 202 198 184 172 198 219 239 228 205 203 199 193 189 195 194 196 205 204 205 210 206 202 199 199 203 208 211 213 212 208 201 200 195 186 189
219 209 200 194 200 210 218 212 207 199 178 184 227 257 275 278 252 221 198 188 192 194 194 204 209 212 222 220 215 208 199 199 200 208 214 217 217 218 219 219 209 196 195
212 210 207 205 211 214 211 206 200 183 174 189 224 241 251 272 275 262 186 195 200 196 206 214 214 219 226 221 217 214 205 201 203 206 209 221 225 218 213 226 225 222 222
201 206 207 204 206 200 195 185 171 164 167 184 222 237 244 263 276 258 221 227 223 211 220 227 224 226 235 227 223 220 212 207 209 209 208 212 220 216 208 206 213 221 229
195 199 198 186 172 176 176 148 135 144 164 203 232 247 232 236 248 252 249 256 242 244 238 233 223 231 251 241 233 225 207 211 218 216 212 211 217 226 218 206 213 229 242
124 144 142 132 140 161 144 137 143 143 222 251 261 269 248 229 242 248 253 261 237 245 245 252 240 234 248 252 244 230 212 214 223 224 224 227 226 229 223 208 209 226 237
85 93 101 107 128 126 114 117 111 217 270 304 349 348 287 251 250 258 265 250 242 226 229 253 268 254 254 263 257 242 220 213 217 225 233 238 239 237 231 222 217 231 230
78 86 92 74 59 90 103 95 53 325 17 47 35 0 343 332 344 326 318 300 229 245 269 285 296 286 272 266 263 253 242 232 218 231 234 236 239 238 236 230 231 240 235
89 93 99 79 52 69 102 100 344 14 54 59 38 7 6 2 359 351 340 343 324 272 276 278 286 292 281 267 262 259 254 247 233 233 234 239 240 239 237 233 232 231 211
84 92 95 86 47 32 53 78 20 40 70 55 22 21 24 10 8 1 353 341 311 291 275 268 273 284 289 278 268 266 268 264 255 243 240 245 242 235 235 237 233 216 206
73 85 92 87 46 27 25 14 19 67 69 51 34 22 17 10 3 356 337 313 285 264 272 275 268 274 283 275 264 255 248 238 238 228 218 218 226 223 223 218 216 207 205
76 73 69 62 36 29 16 1 4 45 69 40 21 7 359 359 355 352 352 347 329 317 307 297 285 282 278 286 280 271 264 255 239 226 220 223 224 228 225 221 221 217 217
Height
1478 1477 1477 1476 1476 1476 1475 1475 1476 1476 1478 1479 1480 1482 1484 1486 1488 1489 1490 1492 1495 1497 1499 1501 1503 1505 1507 1509 1511 1513 1515 1517 1519 1521 1523 1525 1527 1528 1529 1530 1531 1531 1532
1476 1475 1475 1474 1474 1474 1474 1474 1474 1475 1476 1477 1479 1481 1483 1484 1486 1488 1489 1491 1493 1495 1497 1499 1501 1503 1505 1506 1508 1511 1512 1514 1517 1518 1520 1523 1526 1526 1527 1528 1529 1529 1530
1474 1474 1473 1473 1473 1473 1473 1473 1473 1474 1475 1476 1478 1480 1481 1483 1484 1486 1487 1489 1491 1493 1495 1497 1499 1501 1502 1504 1506 1508 1509 1511 1514 1516 1517 1519 1520 1523 1525 1525 1526 1527 1528
1473 1472 1472 1471 1471 1472 1472 1472 1472 1473 1474 1475 1476 1477 1479 1481 1482 1484 1486 1487 1489 1491 1493 1495 1497 1499 1501 1502 1504 1506 1508 1509 1511 1513 1514 1516 1517 1519 1521 1523 1523 1524 1525
1471 1470 1470 1470 1470 1470 1471 1471 1472 1472 1473 1474 1475 1476 1478 1480 1481 1482 1484 1485 1487 1489 1491 1493 1495 1497 1499 1501 1502 1503 1505 1507 1508 1510 1511 1512 1514 1515 1517 1518 1520 1522 1522
1470 1469 1469 1469 1469 1469 1470 1470 1471 1472 1472 1473 1474 1475 1476 1477 1479 1480 1482 1483 1485 1487 1489 1492 1493 1495 1496 1498 1500 1501 1503 1505 1506 1508 1509 1510 1511 1512 1513 1514 1516 1518 1519
1469 1468 1468 1468 1468 1468 1468 1469 1470 1471 1471 1472 1473 1474 1475 1476 1477 1478 1480 1481 1483 1485 1487 1489 1491 1492 1494 1496 1497 1499 1501 1502 1503 1505 1506 1507 1508 1509 1510 1512 1513 1514 1516
1468 1467 1467 1467 1467 1467 1467 1468 1469 1469 1470 1471 1471 1472 1474 1474 1476 1477 1478 1480 1482 1483 1485 1487 1489 1490 1492 1493 1495 1496 1498 1500 1500 1502 1503 1504 1505 1506 1507 1508 1509 1510 1512
1467 1466 1466 1466 1466 1465 1466 1466 1467 1468 1468 1469 1470 1471 1472 1473 1474 1475 1476 1478 1480 1481 1483 1485 1486 1487 1489 1490 1492 1493 1495 1496 1497 1499 1500 1501 1501 1502 1504 1505 1506 1508 1508
1466 1465 1465 1465 1465 1465 1465 1465 1466 1466 1467 1467 1468 1469 1470 1471 1472 1473 1474 1476 1477 1479 1480 1481 1483 1485 1486 1488 1489 1490 1492 1493 1494 1495 1497 1497 1499 1499 1500 1501 1502 1503 1505
1464 1464 1464 1464 1464 1464 1463 1463 1464 1465 1465 1466 1466 1467 1468 1469 1470 1471 1472 1473 1475 1476 1477 1479 1481 1482 1484 1485 1486 1487 1488 1490 1491 1492 1493 1494 1495 1496 1497 1498 1499 1500 1501
1463 1463 1463 1462 1462 1462 1462 1462 1462 1463 1463 1464 1465 1465 1466 1467 1468 1468 1470 1471 1472 1473 1474 1476 1477 1479 1480 1482 1483 1484 1485 1486 1487 1488 1489 1490 1491 1493 1494 1494 1495 1496 1497
1461 1461 1461 1460 1460 1460 1460 1460 1460 1461 1461 1462 1462 1463 1464 1464 1465 1466 1467 1468 1469 1470 1471 1473 1474 1475 1477 1478 1479 1480 1482 1483 1484 1484 1485 1486 1488 1489 1490 1490 1491 1492 1493
1459 1459 1459 1459 1458 1459 1459 1459 1459 1459 1459 1459 1460 1460 1460 1461 1462 1463 1463 1464 1465 1467 1468 1469 1471 1472 1473 1474 1476 1477 1478 1478 1479 1481 1482 1483 1484 1485 1486 1487 1487 1488 1489
1457 1457 1457 1457 1457 1457 1457 1457 1457 1458 1457 1457 1457 1457 1458 1458 1459 1459 1460 1461 1462 1464 1465 1466 1467 1468 1469 1471 1472 1473 1474 1474 1475 1477 1478 1479 1480 1481 1482 1482 1483 1484 1484
1455 1454 1454 1454 1455 1455 1455 1455 1455 1455 1456 1455 1455 1455 1455 1455 1456 1456 1457 1458 1459 1460 1461 1462 1463 1464 1465 1467 1468 1469 1469 1470 1471 1472 1474 1475 1476 1476 1477 1478 1478 1479 1479
1452 1452 1452 1452 1452 1452 1453 1453 1453 1453 1453 1453 1454 1454 1453 1453 1453 1453 1453 1454 1455 1456 1457 1458 1459 1460 1461 1463 1464 1465 1465 1466 1467 1468 1469 1470 1471 1472 1472 1473 1473 1474 1474
1449 1449 1449 1450 1450 1450 1450 1451 1451 1451 1451 1451 1452 1452 1452 1451 1451 1451 1451 1451 1452 1453 1454 1454 1455 1456 1457 1459 1459 1460 1461 1462 1462 1463 1464 1465 1466 1467 1467 1468 1468 1468 1469
1446 1446 1447 1447 1448 1448 1448 1448 1449 1449 1449 1449 1449 1449 1450 1449 1449 1448 1448 1449 1449 1449 1450 1450 1451 1452 1453 1454 1455 1456 1456 1456 1457 1458 1459 1460 1461 1462 1462 1463 1463 1463 1464
1444 1444 1445 1445 1445 1446 1446 1446 1446 1446 1446 1447 1447 1447 1447 1447 1447 1446 1446 1446 1446 1446 1447 1447 1448 1448 1449 1450 1451 1451 1451 1451 1452 1453 1454 1455 1455 1456 1456 1457 1457 1457 1458
1442 1443 1443 1443 1444 1444 1444 1444 1444 1444 1444 1445 1445 1445 1445 1444 1444 1443 1443 1443 1443 1443 1443 1444 1444 1444 1445 1445 1446 1446 1446 1446 1447 1448 1449 1450 1451 1451 1452 1452 1452 1453 1453
1441 1441 1441 1442 1442 1442 1442 1442 1442 1442 1443 1442 1442 1443 1442 1442 1441 1441 1440 1440 1440 1440 1440 1440 1440 1440 1441 1441 1441 1442 1442 1442 1443 1443 1444 1445 1446 1446 1447 1447 1447 1448 1448
1440 1440 1440 1440 1441 1441 1441 1441 1441 1441 1441 1440 1440 1440 1440 1439 1439 1439 1438 1438 1437 1437 1437 1437 1436 1437 1437 1437 1437 1438 1438 1438 1438 1439 1440 1440 1441 1441 1441 1442 1442 1442 1442
1439 1439 1439 1439 1439 1440 1440 1440 1440 1440 1439 1438 1438 1438 1437 1436 1436 1436 1436 1435 1435 1435 1434 1434 1433 1433 1433 1433 1434 1433 1434 1434 1434 1434 1434 1435 1435 1436 1436 1436 1437 1437 1437
1438 1438 1438 1438 1438 1438 1438 1438 1438 1438 1438 1437 1436 1435 1435 1434 1434 1434 1433 1433 1433 1433 1432 1431 1431 1430 1430 1430 1430 1430 1429 1429 1429 1429 1429 1430 1430 1430 1431 1431 1431 1432 1432
1437 1437 1437 1437 1437 1437 1437 1437 1437 1437 1436 1435 1434 1434 1433 1433 1432 1431 1431 1430 1430 1430 1429 1428 1428 1427 1427 1426 1426 1426 1425 1425 1425 1425 1424 1424 1425 1425 1425 1426 1426 1427 1427